Regional Weather Roundup
Issued by NWS Newport/Morehead, NC

Current Version | Previous Version | Text Only | Print | Product List | Glossary On
Versions: 1 2 3 4 5 6 7 8 9 10 11 12 13 14 15 16 17 18 19 20 21 22 23 24 25 26 27 28 29 30 31 32 33 34 35 36 37 38 39 40 41 42 43 44 45 46 47 48 49 50
000
ASUS42 KMHX 300422
RWRMHX
WEATHER ROUNDUP FOR EASTERN NORTH CAROLINA
NATIONAL WEATHER SERVICE NEWPORT/MOREHEAD CITY NC
1100 PM EST THU JAN 29 2015

NOTE: "FAIR" INDICATES FEW OR NO CLOUDS BELOW 12,000 FEET
WITH NO SIGNIFICANT WEATHER AND/OR OBSTRUCTIONS TO VISIBILITY

NCZ015>017-031-032-045>047-102-103-300500-
NORTH COAST

CITY           SKY/WX    TMP DP  RH WIND       PRES   REMARKS
EDENTON        MOCLDY    40  30  67 S6        30.10F
ELIZABETH CITY CLOUDY    41  29  62 S8        30.10F
KITTY HAWK     MOCLDY    41  30  66 SW5       30.09F
MANTEO         CLOUDY    41  32  70 SW9       30.11F

$$

NCZ045>047-081-094-103-104-300500-
CENTRAL COAST

CITY           SKY/WX    TMP DP  RH WIND       PRES   REMARKS
FRISCO         LGT RAIN  49  40  71 SW9       30.11F
SWANQUARTER    NOT AVBL

$$

NCZ095-097-098-100-101-300500-
SOUTHERN COAST

CITY           SKY/WX    TMP DP  RH WIND       PRES   REMARKS
BEAUFORT       LGT RAIN  53  45  74 SW14      30.10F
CEDAR ISLAND   NOT AVBL
JACKSONVILLE   CLOUDY    49  39  68 SW8       30.11F
PINEY ISLAND     N/A    N/A N/A N/A MISG      30.09F
WILMINGTON     CLOUDY    50  41  71 SW7       30.12F


$$

NCZ011>013-027>030-043-044-078>080-089-090>093-098-300500-
COASTAL PLAIN

CITY           SKY/WX    TMP DP  RH WIND       PRES   REMARKS
AHOSKIE        PTCLDY    31  23  70 S5        30.08F
CLINTON        CLOUDY    46  36  68 SW5       30.11F
ELIZABETHTOWN  LGT RAIN  49  39  68 SW9G16    30.11F
GOLDSBORO      PTCLDY    43  37  80 CALM      30.08F
GREENVILLE     PTCLDY    39  28  65 S3        30.12S
HAVELOCK       CLOUDY    50  40  68 SW7       30.11F
KENANSVILLE    CLOUDY    45  36  70 SW3       30.11F
KINSTON        PTCLDY    40  32  71 CALM      30.11F
NEW BERN       LGT RAIN  47  37  68 SW5       30.12R
RICHLANDS      CLOUDY    45  36  70 SW6       30.12S
ROCKY MOUNT    CLEAR     33  25  72 CALM      30.08F
WASHINGTON     MOCLDY    43  30  61 SW5       30.11S
WHITEVILLE     CLOUDY    48  38  70 SW6       30.12F

$$

AMZ130-135-150-152-154-156-158-170-250-252-270-ANZ085-086-088-633-658-670-300500-
MARINE OBSERVATIONS

STATION/POSITION TIME  TEMP    WIND        PRES    WAVE   SWELL
                       AIR SEA DIR/SP/G            HT/PER HT/PER
                 (UTC) (F)     (DEG/KT/KT) (MB)    (FT/S) (FT/S)
CHESAPEAKE LIGHT 0400   41     200/ 21/ 23 1018.4
64 E VA BEACH    0400   45 49  210/ 17/ 21 1018.7    3/11   2/11
DUCK             0400   41 43  200/  8/ 10 1018.4
2 E DUCK         0400      42                N/A     3/11   2/11
10 NE DUCK       0400      44                N/A     3/12   2/12
OREGON INLET     0400   42 41  190/  7/  7 1019.4
13E OREGON INLT  0400      43                N/A     3/12   2/12
HATTERAS CG      0400   49 44  230/  7/ 10 1019.4
DIAMOND BUOY     0400   57 71  230/ 21/ 27 1019.1    4/ 9   3/ 9
17 S OCRACOKE    NOT AVBL
CAPE LOOKOUT     0400   55     230/ 10/ 13 1019.6
BEAUFORT LAB     0400   54 46  220/  9/ 14 1018.1
27 SE WRIGHTSVLE NOT AVBL
5 SE WRIGHTSVLE  0400   54 52  210/ 14/ 17 1019.2
225 S CAPE HAT   0346   59 71  230/  8/ 14 1023.6    6/ 9   5/ 9
41 SE CHARLESTON 0400   63 68  230/ 19/ 23 1020.6    4/ 4   2/10

$$



USA.gov is the U.S. government's official web portal to all federal, state and local government web resources and services.